This is the latest recevied weather packets stored in our database for station/object XE2G-31. If no packets are shown the sender has not sent any weather packets the latest 10 day(s).
| Time | Temp. | Humidity | Pressure | Rain* | Wind** | Luminosity | Snow |
|---|---|---|---|---|---|---|---|
| 1777395924 | 31.11° C | 42% | 873 hPa | - | - | - | - |
| 1777394978 | 29.44° C | 42% | 873 hPa | - | - | - | - |
| 1777394030 | 29.44° C | 42% | 873 hPa | - | - | - | - |
| 1777393083 | 30° C | 40% | 873 hPa | - | - | - | - |
| 1777392137 | 30° C | 43% | 872 hPa | - | - | - | - |
| 1777391190 | 28.89° C | 40% | 872 hPa | - | - | - | - |
| 1777390243 | 28.33° C | 42% | 872 hPa | - | - | - | - |
| 1777389296 | 27.22° C | 42% | 872 hPa | - | - | - | - |
| 1777388349 | 26.67° C | 42% | 872 hPa | - | - | - | - |
| 1777387402 | 26.11° C | 45% | 872 hPa | - | - | - | - |
| 1777386456 | 26.11° C | 46% | 872 hPa | - | - | - | - |
| 1777385509 | 26.11° C | 47% | 872 hPa | - | - | - | - |
| 1777384562 | 26.11° C | 47% | 872 hPa | - | - | - | - |
| 1777383615 | 25° C | 51% | 872 hPa | - | - | - | - |
| 1777382668 | 26.67° C | 47% | 872 hPa | - | - | - | - |
| 1777381722 | 26.11° C | 48% | 871 hPa | - | - | - | - |
| 1777380775 | 25° C | 51% | 871 hPa | - | - | - | - |
| 1777379828 | 23.89° C | 59% | 871 hPa | - | - | - | - |
| 1777378881 | 23.33° C | 65% | 871 hPa | - | - | - | - |
| 1777377934 | 23.89° C | 52% | 871 hPa | - | - | - | - |
| 1777376987 | 23.33° C | 57% | 871 hPa | - | - | - | - |
| 1777376041 | 23.33° C | 59% | 871 hPa | - | - | - | - |
| 1777375094 | 23.33° C | 60% | 871 hPa | - | - | - | - |
| 1777374147 | 22.78° C | 66% | 871 hPa | - | - | - | - |
| 1777373200 | 22.78° C | 68% | 871 hPa | - | - | - | - |
* Rain since midnight (hover to see other rain measurements)
** Current wind speed in m/s (hover to see current wind gust speed)